^^
Your Local Weather - Clay, NY Station Historical Data
Daily Summary for May 2, 2017 Units:  English    Metric   Both
« Previous Day
Next Day »
Daily Weekly Monthly Yearly Custom
  High: Low: Average:
Temperature: 59.8 °F 47.6 °F 53.3 °F
Dew Point: 58.1 °F 38.1 °F 45.4 °F
Humidity: 94% 62% 75%
Wind Speed: 8.0mph 0.0mph 2.3mph
Wind Gust: 12.0mph - -
Wind- - WSW
Pressure: 29.69 in 29.48 in -
Precipitation: 0.28 in    
Historical Graphs
 
 
Tabular Data for May 2, 2017
Time Temperature Dew Point Pressure Wind Wind Speed Wind Gust Humidity Rainfall Rate (Hourly) solar
00:02 59.1 °F 57.1 °F 29.48 in Calm     93% 0.00 in 0 W/m2
00:08 59.1 °F 57.4 °F 29.48 in Calm     94% 0.00 in 0 W/m2
00:14 59.2 °F 57.5 °F 29.48 in Calm     94% 0.00 in 0 W/m2
00:20 59.1 °F 57.4 °F 29.48 in Calm     94% 0.00 in 0 W/m2
00:26 59.1 °F 57.4 °F 29.48 in Calm     94% 0.00 in 0 W/m2
00:32 59.1 °F 57.4 °F 29.48 in Calm     94% 0.00 in 0 W/m2
00:38 58.9 °F 56.9 °F 29.48 in Calm     93% 0.00 in 0 W/m2
00:44 58.9 °F 57.2 °F 29.49 in Calm     94% 0.00 in 0 W/m2
00:50 59.0 °F 57.3 °F 29.49 in Calm     94% 0.00 in 0 W/m2
00:56 59.1 °F 57.4 °F 29.50 in Calm     94% 0.00 in 0 W/m2
01:02 59.3 °F 57.6 °F 29.51 in Calm   1.0 mph 94% 0.00 in 0 W/m2
01:08 59.6 °F 57.9 °F 29.51 in WNW 1.0 mph 3.0 mph 94% 0.84 in 0 W/m2
01:14 59.8 °F 58.1 °F 29.51 in WSW 2.0 mph 8.0 mph 94% 0.51 in 0 W/m2
01:20 59.3 °F 57.6 °F 29.51 in South 3.0 mph 3.0 mph 94% 0.10 in 0 W/m2
01:26 59.1 °F 57.4 °F 29.53 in SSW 2.0 mph 3.0 mph 94% 0.05 in 0 W/m2
01:32 58.9 °F 56.9 °F 29.52 in WSW 1.0 mph 1.0 mph 93% 0.00 in 0 W/m2
01:38 58.8 °F 56.8 °F 29.53 in SW 2.0 mph 7.0 mph 93% 0.00 in 0 W/m2
01:44 58.7 °F 56.7 °F 29.52 in SW 2.0 mph 4.0 mph 93% 0.00 in 0 W/m2
01:50 58.4 °F 56.4 °F 29.52 in WSW 2.0 mph 2.0 mph 93% 0.00 in 0 W/m2
01:56 57.9 °F 55.6 °F 29.53 in WNW 2.0 mph 2.0 mph 92% 0.00 in 0 W/m2
02:02 57.6 °F 54.7 °F 29.53 in WSW 2.0 mph 2.0 mph 90% 0.00 in 0 W/m2
02:08 57.4 °F 54.5 °F 29.53 in West 1.0 mph 2.0 mph 90% 0.00 in 0 W/m2
02:12 57.3 °F 54.1 °F 29.53 in SW 1.0 mph 2.0 mph 89% 0.00 in 0 W/m2
02:18 57.2 °F 53.7 °F 29.54 in SW 2.0 mph 3.0 mph 88% 0.00 in 0 W/m2
02:24 57.0 °F 53.5 °F 29.54 in WSW 2.0 mph 2.0 mph 88% 0.00 in 0 W/m2
02:30 56.8 °F 53.0 °F 29.54 in WSW 1.0 mph 1.0 mph 87% 0.00 in 0 W/m2
02:36 56.6 °F 52.5 °F 29.53 in SSW 2.0 mph 3.0 mph 86% 0.00 in 0 W/m2
02:42 56.4 °F 52.3 °F 29.53 in WSW 1.0 mph 1.0 mph 86% 0.00 in 0 W/m2
02:48 56.2 °F 51.7 °F 29.54 in WSW 1.0 mph 2.0 mph 85% 0.00 in 0 W/m2
02:54 56.1 °F 51.3 °F 29.54 in West 2.0 mph 3.0 mph 84% 0.00 in 0 W/m2
03:00 56.0 °F 50.9 °F 29.53 in West 2.0 mph 2.0 mph 83% 0.00 in 0 W/m2
03:06 55.9 °F 50.5 °F 29.53 in West 1.0 mph 2.0 mph 82% 0.00 in 0 W/m2
03:12 55.9 °F 50.2 °F 29.54 in WSW 1.0 mph 5.0 mph 81% 0.00 in 0 W/m2
03:18 55.7 °F 50.0 °F 29.54 in WNW 1.0 mph 5.0 mph 81% 0.00 in 0 W/m2
03:24 55.7 °F 50.0 °F 29.54 in West 1.0 mph 2.0 mph 81% 0.00 in 0 W/m2
03:30 55.5 °F 50.1 °F 29.54 in WSW 1.0 mph 1.0 mph 82% 0.00 in 0 W/m2
03:36 55.3 °F 49.9 °F 29.54 in WSW 1.0 mph 2.0 mph 82% 0.00 in 0 W/m2
03:42 55.3 °F 49.2 °F 29.54 in WNW 1.0 mph 5.0 mph 80% 0.00 in 0 W/m2
03:48 55.4 °F 49.3 °F 29.54 in West 1.0 mph 5.0 mph 80% 0.00 in 0 W/m2
03:54 55.2 °F 48.8 °F 29.54 in WSW 1.0 mph 2.0 mph 79% 0.00 in 0 W/m2
04:00 55.3 °F 48.6 °F 29.54 in WSW 2.0 mph 2.0 mph 78% 0.00 in 0 W/m2
04:06 55.2 °F 48.1 °F 29.54 in WSW 2.0 mph 4.0 mph 77% 0.00 in 0 W/m2
04:12 55.1 °F 48.4 °F 29.54 in SW 2.0 mph 2.0 mph 78% 0.00 in 0 W/m2
04:18 54.9 °F 48.2 °F 29.55 in WSW 1.0 mph 2.0 mph 78% 0.00 in 0 W/m2
04:24 54.9 °F 48.2 °F 29.54 in West 1.0 mph 1.0 mph 78% 0.00 in 0 W/m2
04:30 54.7 °F 48.0 °F 29.55 in Calm   1.0 mph 78% 0.00 in 0 W/m2
04:36 54.6 °F 47.9 °F 29.56 in West 1.0 mph 3.0 mph 78% 0.00 in 0 W/m2
04:42 54.5 °F 48.1 °F 29.56 in SSW 1.0 mph 1.0 mph 79% 0.00 in 0 W/m2
04:48 54.4 °F 48.0 °F 29.55 in SW 1.0 mph 3.0 mph 79% 0.00 in 0 W/m2
04:54 54.5 °F 47.8 °F 29.55 in WSW 2.0 mph 2.0 mph 78% 0.00 in 0 W/m2
05:00 54.4 °F 47.7 °F 29.56 in WSW 2.0 mph 2.0 mph 78% 0.00 in 0 W/m2
05:06 54.4 °F 47.3 °F 29.55 in WSW 2.0 mph 2.0 mph 77% 0.00 in 0 W/m2
05:12 54.3 °F 47.6 °F 29.55 in WSW 1.0 mph 1.0 mph 78% 0.00 in 0 W/m2
05:18 54.2 °F 47.5 °F 29.55 in WSW 1.0 mph 1.0 mph 78% 0.00 in 0 W/m2
05:24 54.0 °F 47.3 °F 29.56 in WSW 1.0 mph 2.0 mph 78% 0.00 in 0 W/m2
05:30 53.9 °F 47.2 °F 29.56 in SW 1.0 mph 1.0 mph 78% 0.00 in 0 W/m2
05:36 53.9 °F 47.2 °F 29.56 in SW 1.0 mph 1.0 mph 78% 0.00 in 0 W/m2
05:42 53.9 °F 46.5 °F 29.56 in WSW 1.0 mph 2.0 mph 76% 0.00 in 0 W/m2
05:48 53.9 °F 46.5 °F 29.56 in WSW 1.0 mph 3.0 mph 76% 0.00 in 0 W/m2
05:54 53.8 °F 46.1 °F 29.56 in Calm   1.0 mph 75% 0.00 in 0 W/m2
06:00 53.7 °F 46.3 °F 29.56 in Calm     76% 0.00 in 0 W/m2
06:06 53.6 °F 45.9 °F 29.56 in SW 1.0 mph 5.0 mph 75% 0.00 in 5 W/m2
06:12 53.5 °F 45.4 °F 29.56 in WSW 1.0 mph 1.0 mph 74% 0.00 in 12 W/m2
06:18 53.5 °F 45.1 °F 29.56 in WSW 1.0 mph 2.0 mph 73% 0.00 in 21 W/m2
06:24 53.5 °F 45.1 °F 29.56 in WSW 1.0 mph 2.0 mph 73% 0.00 in 25 W/m2
06:30 53.5 °F 45.1 °F 29.56 in SW 1.0 mph 1.0 mph 73% 0.00 in 33 W/m2
06:36 53.5 °F 44.3 °F 29.56 in WNW 1.0 mph 4.0 mph 71% 0.00 in 47 W/m2
06:42 53.6 °F 44.4 °F 29.56 in WSW 1.0 mph 1.0 mph 71% 0.00 in 39 W/m2
06:48 53.6 °F 44.4 °F 29.56 in WSW 1.0 mph 1.0 mph 71% 0.00 in 42 W/m2
06:54 53.6 °F 44.4 °F 29.56 in SSW 1.0 mph 4.0 mph 71% 0.00 in 44 W/m2
07:00 53.5 °F 44.7 °F 29.56 in West 1.0 mph 1.0 mph 72% 0.00 in 39 W/m2
07:06 53.5 °F 44.3 °F 29.56 in Calm   1.0 mph 71% 0.00 in 44 W/m2
07:12 53.5 °F 44.7 °F 29.56 in Calm   1.0 mph 72% 0.00 in 39 W/m2
07:18 53.5 °F 44.3 °F 29.56 in West 1.0 mph 1.0 mph 71% 0.00 in 44 W/m2
07:24 53.5 °F 44.3 °F 29.56 in Calm   1.0 mph 71% 0.00 in 46 W/m2
07:30 53.6 °F 45.2 °F 29.56 in Calm     73% 0.00 in 40 W/m2
07:36 53.7 °F 45.2 °F 29.55 in Calm     73% 0.00 in 54 W/m2
07:42 53.7 °F 45.6 °F 29.55 in Calm     74% 0.00 in 60 W/m2
07:48 53.8 °F 46.4 °F 29.55 in Calm     76% 0.00 in 70 W/m2
07:54 53.8 °F 46.1 °F 29.54 in Calm     75% 0.00 in 91 W/m2
08:00 53.9 °F 46.2 °F 29.55 in Calm     75% 0.00 in 76 W/m2
08:06 54.0 °F 45.5 °F 29.55 in Calm     73% 0.00 in 84 W/m2
08:12 54.1 °F 45.3 °F 29.55 in Calm   1.0 mph 72% 0.00 in 81 W/m2
08:18 54.2 °F 45.0 °F 29.54 in Calm   3.0 mph 71% 0.00 in 134 W/m2
08:24 54.3 °F 45.1 °F 29.54 in Calm   1.0 mph 71% 0.00 in 130 W/m2
08:30 54.5 °F 45.7 °F 29.54 in Calm     72% 0.00 in 104 W/m2
08:36 54.5 °F 45.3 °F 29.54 in Calm   2.0 mph 71% 0.00 in 116 W/m2
08:42 54.5 °F 44.9 °F 29.54 in Calm     70% 0.00 in 102 W/m2
08:48 54.6 °F 45.0 °F 29.54 in Calm   1.0 mph 70% 0.00 in 118 W/m2
08:54 54.6 °F 45.0 °F 29.54 in Calm   1.0 mph 70% 0.00 in 130 W/m2
09:00 54.8 °F 44.8 °F 29.54 in Calm     69% 0.00 in 93 W/m2
09:06 54.7 °F 44.7 °F 29.54 in Calm   1.0 mph 69% 0.00 in 74 W/m2
09:12 54.6 °F 44.6 °F 29.54 in Calm     69% 0.00 in 53 W/m2
09:18 54.4 °F 44.1 °F 29.54 in Calm   1.0 mph 68% 0.00 in 60 W/m2
09:24 54.4 °F 44.1 °F 29.54 in Calm     68% 0.00 in 56 W/m2
09:30 54.4 °F 44.4 °F 29.54 in Calm     69% 0.00 in 114 W/m2
09:36 54.6 °F 45.0 °F 29.54 in Calm     70% 0.00 in 127 W/m2
09:42 54.7 °F 44.0 °F 29.53 in Calm     67% 0.00 in 163 W/m2
09:48 55.0 °F 44.6 °F 29.53 in Calm     68% 0.00 in 234 W/m2
09:54 55.3 °F 44.9 °F 29.53 in Calm   1.0 mph 68% 0.00 in 255 W/m2
10:00 55.4 °F 44.6 °F 29.53 in SW 1.0 mph 1.0 mph 67% 0.00 in 204 W/m2
10:06 55.3 °F 44.1 °F 29.53 in SW 1.0 mph 2.0 mph 66% 0.00 in 195 W/m2
10:12 55.4 °F 44.2 °F 29.53 in SW 1.0 mph 1.0 mph 66% 0.00 in 141 W/m2
10:18 55.5 °F 44.7 °F 29.53 in Calm   1.0 mph 67% 0.00 in 156 W/m2
10:24 55.5 °F 44.3 °F 29.53 in SW 1.0 mph 2.0 mph 66% 0.00 in 144 W/m2
10:30 55.5 °F 44.3 °F 29.52 in SW 1.0 mph 1.0 mph 66% 0.00 in 171 W/m2
10:36 55.6 °F 44.8 °F 29.51 in Calm   1.0 mph 67% 0.00 in 188 W/m2
10:42 55.7 °F 44.9 °F 29.52 in Calm     67% 0.00 in 213 W/m2
10:48 55.9 °F 45.1 °F 29.51 in SW 1.0 mph 2.0 mph 67% 0.00 in 149 W/m2
11:00 55.8 °F 44.6 °F 29.51 in SW 1.0 mph 2.0 mph 66% 0.00 in 118 W/m2
11:06 55.6 °F 44.4 °F 29.51 in South 1.0 mph 2.0 mph 66% 0.00 in 102 W/m2
11:12 55.6 °F 44.8 °F 29.51 in South 1.0 mph 2.0 mph 67% 0.00 in 95 W/m2
11:18 55.5 °F 45.1 °F 29.51 in South 2.0 mph 2.0 mph 68% 0.00 in 142 W/m2
11:24 55.6 °F 45.2 °F 29.51 in South 1.0 mph 1.0 mph 68% 0.00 in 172 W/m2
11:30 55.8 °F 45.4 °F 29.51 in SSE 1.0 mph 1.0 mph 68% 0.00 in 139 W/m2
11:36 56.0 °F 46.0 °F 29.51 in SSE 1.0 mph 1.0 mph 69% 0.00 in 132 W/m2
11:42 55.9 °F 45.9 °F 29.51 in SSE 1.0 mph 2.0 mph 69% 0.00 in 151 W/m2
11:48 55.9 °F 46.3 °F 29.51 in SE 2.0 mph 3.0 mph 70% 0.00 in 127 W/m2
11:54 55.4 °F 46.9 °F 29.51 in SSE 2.0 mph 4.0 mph 73% 0.00 in 123 W/m2
12:00 54.4 °F 47.7 °F 29.51 in SE 3.0 mph 4.0 mph 78% 0.00 in 163 W/m2
12:06 54.0 °F 48.0 °F 29.51 in SE 3.0 mph 4.0 mph 80% 0.00 in 171 W/m2
12:12 54.0 °F 48.0 °F 29.50 in SSW 3.0 mph 6.0 mph 80% 0.00 in 178 W/m2
12:18 54.2 °F 48.5 °F 29.50 in SSE 4.0 mph 6.0 mph 81% 0.00 in 162 W/m2
12:24 54.3 °F 48.3 °F 29.50 in SSW 4.0 mph 4.0 mph 80% 0.00 in 185 W/m2
12:30 54.5 °F 47.4 °F 29.51 in NW 2.0 mph 3.0 mph 77% 0.00 in 63 W/m2
12:36 53.3 °F 46.3 °F 29.51 in NW 2.0 mph 4.0 mph 77% 0.00 in 186 W/m2
12:42 52.2 °F 46.5 °F 29.51 in WSW 2.0 mph 2.0 mph 81% 0.00 in 139 W/m2
12:48 51.6 °F 46.3 °F 29.51 in WSW 2.0 mph 5.0 mph 82% 0.00 in 183 W/m2
12:54 51.6 °F 46.9 °F 29.51 in SW 2.0 mph 2.0 mph 84% 0.00 in 186 W/m2
13:00 51.7 °F 47.0 °F 29.51 in WSW 2.0 mph 4.0 mph 84% 0.00 in 200 W/m2
13:06 52.2 °F 47.5 °F 29.50 in SSW 3.0 mph 6.0 mph 84% 0.00 in 243 W/m2
13:12 52.8 °F 47.8 °F 29.50 in SSE 3.0 mph 4.0 mph 83% 0.00 in 214 W/m2
13:18 53.1 °F 47.4 °F 29.50 in SW 4.0 mph 5.0 mph 81% 0.00 in 223 W/m2
13:24 53.4 °F 47.4 °F 29.49 in SW 4.0 mph 5.0 mph 80% 0.00 in 248 W/m2
13:30 53.6 °F 46.6 °F 29.49 in South 4.0 mph 8.0 mph 77% 0.00 in 229 W/m2
13:36 53.9 °F 46.5 °F 29.49 in SSE 4.0 mph 8.0 mph 76% 0.00 in 271 W/m2
13:42 54.5 °F 46.7 °F 29.49 in SW 3.0 mph 5.0 mph 75% 0.00 in 285 W/m2
13:48 54.8 °F 46.3 °F 29.49 in West 4.0 mph 6.0 mph 73% 0.00 in 257 W/m2
13:54 55.1 °F 46.2 °F 29.48 in SSW 4.0 mph 7.0 mph 72% 0.00 in 218 W/m2
14:00 55.3 °F 45.7 °F 29.48 in SW 4.0 mph 6.0 mph 70% 0.00 in 279 W/m2
14:06 55.7 °F 46.4 °F 29.48 in WSW 4.0 mph 9.0 mph 71% 0.00 in 345 W/m2
14:12 56.6 °F 45.8 °F 29.48 in WNW 4.0 mph 8.0 mph 67% 0.00 in 577 W/m2
14:18 57.0 °F 45.7 °F 29.48 in SW 4.0 mph 8.0 mph 66% 0.00 in 432 W/m2
14:24 57.5 °F 45.4 °F 29.49 in SSW 4.0 mph 5.0 mph 64% 0.00 in 369 W/m2
14:30 57.7 °F 46.0 °F 29.49 in WSW 3.0 mph 3.0 mph 65% 0.00 in 373 W/m2
14:36 57.9 °F 46.6 °F 29.49 in SW 3.0 mph 4.0 mph 66% 0.00 in 318 W/m2
14:42 57.8 °F 45.7 °F 29.49 in SSW 3.0 mph 8.0 mph 64% 0.00 in 107 W/m2
14:48 56.2 °F 46.2 °F 29.51 in SW 6.0 mph 9.0 mph 69% 0.00 in 37 W/m2
14:54 52.0 °F 44.3 °F 29.53 in NW 8.0 mph 8.0 mph 75% 1.91 in 79 W/m2
15:00 48.7 °F 43.1 °F 29.53 in NW 5.0 mph 5.0 mph 81% 0.13 in 130 W/m2
15:06 48.2 °F 43.9 °F 29.52 in WNW 2.0 mph 5.0 mph 85% 0.09 in 155 W/m2
15:12 48.5 °F 44.8 °F 29.52 in WNW 1.0 mph 1.0 mph 87% 0.04 in 225 W/m2
15:18 49.0 °F 45.6 °F 29.53 in WNW 1.0 mph 1.0 mph 88% 0.00 in 239 W/m2
15:24 49.3 °F 46.2 °F 29.54 in West 1.0 mph 2.0 mph 89% 0.00 in 156 W/m2
15:30 49.3 °F 46.2 °F 29.55 in WSW 2.0 mph 4.0 mph 89% 0.00 in 81 W/m2
15:36 49.2 °F 45.8 °F 29.55 in WSW 3.0 mph 4.0 mph 88% 0.00 in 114 W/m2
15:42 49.4 °F 46.0 °F 29.55 in West 2.0 mph 3.0 mph 88% 0.00 in 148 W/m2
15:48 49.6 °F 45.6 °F 29.55 in West 3.0 mph 3.0 mph 86% 0.00 in 185 W/m2
15:54 49.6 °F 45.0 °F 29.56 in West 4.0 mph 4.0 mph 84% 0.00 in 123 W/m2
16:00 49.6 °F 45.0 °F 29.56 in WSW 3.0 mph 3.0 mph 84% 0.00 in 172 W/m2
16:06 49.7 °F 44.7 °F 29.56 in WNW 3.0 mph 3.0 mph 83% 0.00 in 141 W/m2
16:12 49.8 °F 44.8 °F 29.56 in West 2.0 mph 4.0 mph 83% 0.00 in 120 W/m2
16:18 49.8 °F 44.8 °F 29.56 in West 3.0 mph 4.0 mph 83% 0.00 in 149 W/m2
16:24 49.8 °F 44.5 °F 29.56 in WSW 3.0 mph 5.0 mph 82% 0.00 in 186 W/m2
16:30 49.8 °F 44.2 °F 29.57 in SW 4.0 mph 4.0 mph 81% 0.00 in 171 W/m2
16:36 50.0 °F 44.4 °F 29.58 in West 4.0 mph 6.0 mph 81% 0.00 in 156 W/m2
16:42 49.9 °F 44.3 °F 29.58 in WSW 4.0 mph 4.0 mph 81% 0.00 in 62 W/m2
16:48 49.9 °F 44.6 °F 29.58 in WNW 4.0 mph 4.0 mph 82% 0.00 in 220 W/m2
16:54 50.2 °F 44.6 °F 29.58 in WSW 3.0 mph 6.0 mph 81% 0.00 in 244 W/m2
17:00 50.6 °F 44.0 °F 29.58 in West 3.0 mph 3.0 mph 78% 0.00 in 241 W/m2
17:06 50.8 °F 43.5 °F 29.58 in West 3.0 mph 3.0 mph 76% 0.00 in 188 W/m2
17:12 50.6 °F 41.2 °F 29.59 in WSW 4.0 mph 6.0 mph 70% 0.00 in 167 W/m2
17:18 50.4 °F 41.3 °F 29.60 in WNW 5.0 mph 6.0 mph 71% 0.00 in 137 W/m2
17:24 50.2 °F 41.9 °F 29.59 in SW 3.0 mph 5.0 mph 73% 0.00 in 120 W/m2
17:30 50.1 °F 41.8 °F 29.60 in WSW 3.0 mph 3.0 mph 73% 0.00 in 102 W/m2
17:36 50.1 °F 41.8 °F 29.60 in WSW 3.0 mph 3.0 mph 73% 0.00 in 130 W/m2
17:42 50.2 °F 41.5 °F 29.60 in WSW 5.0 mph 7.0 mph 72% 0.00 in 134 W/m2
17:48 50.2 °F 41.5 °F 29.60 in WSW 5.0 mph 10.0 mph 72% 0.00 in 146 W/m2
17:54 50.4 °F 41.7 °F 29.60 in WSW 4.0 mph 4.0 mph 72% 0.00 in 188 W/m2
18:00 50.6 °F 42.3 °F 29.60 in NW 4.0 mph 4.0 mph 73% 0.00 in 179 W/m2
18:06 50.8 °F 41.4 °F 29.60 in WSW 3.0 mph 4.0 mph 70% 0.00 in 128 W/m2
18:12 50.8 °F 40.6 °F 29.60 in WNW 5.0 mph 8.0 mph 68% 0.00 in 116 W/m2
18:18 51.0 °F 40.0 °F 29.60 in NW 5.0 mph 8.0 mph 66% 0.00 in 169 W/m2
18:24 51.1 °F 40.5 °F 29.61 in WSW 4.0 mph 5.0 mph 67% 0.00 in 102 W/m2
18:30 51.1 °F 40.1 °F 29.61 in WSW 4.0 mph 4.0 mph 66% 0.00 in 144 W/m2
18:36 51.2 °F 39.4 °F 29.61 in West 4.0 mph 5.0 mph 64% 0.00 in 100 W/m2
18:42 51.2 °F 39.0 °F 29.61 in SW 5.0 mph 9.0 mph 63% 0.00 in 74 W/m2
18:48 51.2 °F 39.4 °F 29.61 in West 5.0 mph 9.0 mph 64% 0.00 in 58 W/m2
18:54 51.1 °F 38.9 °F 29.61 in WSW 4.0 mph 5.0 mph 63% 0.00 in 46 W/m2
19:00 51.0 °F 38.4 °F 29.62 in SW 5.0 mph 5.0 mph 62% 0.00 in 46 W/m2
19:06 50.8 °F 38.2 °F 29.62 in WNW 7.0 mph 12.0 mph 62% 0.00 in 37 W/m2
19:12 50.7 °F 38.1 °F 29.63 in WSW 6.0 mph 7.0 mph 62% 0.00 in 23 W/m2
19:18 50.5 °F 38.8 °F 29.63 in West 5.0 mph 7.0 mph 64% 0.00 in 26 W/m2
19:24 50.3 °F 39.0 °F 29.63 in WSW 3.0 mph 4.0 mph 65% 0.00 in 16 W/m2
19:30 50.3 °F 38.6 °F 29.63 in West 4.0 mph 4.0 mph 64% 0.00 in 18 W/m2
19:36 50.2 °F 38.9 °F 29.63 in WSW 5.0 mph 5.0 mph 65% 0.00 in 9 W/m2
19:42 50.2 °F 38.9 °F 29.63 in WSW 5.0 mph 5.0 mph 65% 0.00 in 5 W/m2
19:50 50.1 °F 38.8 °F 29.63 in West 3.0 mph 10.0 mph 65% 0.00 in 0 W/m2
19:56 50.0 °F 38.7 °F 29.63 in WSW 4.0 mph 10.0 mph 65% 0.00 in 0 W/m2
20:02 50.2 °F 38.9 °F 29.63 in WSW 5.0 mph 10.0 mph 65% 0.00 in 0 W/m2
20:08 50.2 °F 38.9 °F 29.64 in SSW 5.0 mph 10.0 mph 65% 0.00 in 0 W/m2
20:14 50.1 °F 38.8 °F 29.64 in West 4.0 mph 5.0 mph 65% 0.00 in 0 W/m2
20:20 50.1 °F 38.4 °F 29.64 in WSW 4.0 mph 6.0 mph 64% 0.00 in 0 W/m2
20:26 50.2 °F 38.5 °F 29.64 in SW 5.0 mph 7.0 mph 64% 0.00 in 0 W/m2
20:32 50.3 °F 38.6 °F 29.65 in SW 5.0 mph 7.0 mph 64% 0.00 in 0 W/m2
20:38 50.4 °F 38.3 °F 29.65 in West 6.0 mph 9.0 mph 63% 0.00 in 0 W/m2
20:44 50.3 °F 38.2 °F 29.65 in WSW 5.0 mph 6.0 mph 63% 0.00 in 0 W/m2
20:50 50.2 °F 38.5 °F 29.65 in West 4.0 mph 4.0 mph 64% 0.00 in 0 W/m2
20:56 50.2 °F 38.5 °F 29.65 in WSW 4.0 mph 5.0 mph 64% 0.00 in 0 W/m2
21:02 50.2 °F 38.5 °F 29.66 in West 5.0 mph 5.0 mph 64% 0.00 in 0 W/m2
21:08 50.2 °F 38.9 °F 29.65 in WSW 5.0 mph 5.0 mph 65% 0.00 in 0 W/m2
21:14 50.3 °F 38.6 °F 29.66 in SW 5.0 mph 6.0 mph 64% 0.00 in 0 W/m2
21:20 50.2 °F 38.9 °F 29.66 in WSW 4.0 mph 4.0 mph 65% 0.00 in 0 W/m2
21:26 50.2 °F 38.9 °F 29.66 in West 3.0 mph 6.0 mph 65% 0.00 in 0 W/m2
21:32 50.1 °F 38.8 °F 29.66 in SSW 4.0 mph 6.0 mph 65% 0.00 in 0 W/m2
21:38 50.1 °F 38.8 °F 29.66 in WNW 5.0 mph 7.0 mph 65% 0.00 in 0 W/m2
21:44 50.0 °F 38.7 °F 29.67 in West 4.0 mph 6.0 mph 65% 0.00 in 0 W/m2
21:50 49.9 °F 39.0 °F 29.67 in SW 5.0 mph 5.0 mph 66% 0.00 in 0 W/m2
21:56 49.7 °F 39.6 °F 29.67 in WSW 4.0 mph 7.0 mph 68% 0.00 in 0 W/m2
22:02 49.6 °F 39.5 °F 29.67 in WSW 4.0 mph 6.0 mph 68% 0.00 in 0 W/m2
22:08 49.6 °F 39.5 °F 29.67 in WSW 5.0 mph 11.0 mph 68% 0.00 in 0 W/m2
22:14 49.5 °F 39.4 °F 29.67 in West 5.0 mph 10.0 mph 68% 0.00 in 0 W/m2
22:20 49.5 °F 39.4 °F 29.68 in WSW 5.0 mph 5.0 mph 68% 0.00 in 0 W/m2
22:26 49.6 °F 39.5 °F 29.68 in WSW 5.0 mph 10.0 mph 68% 0.00 in 0 W/m2
22:32 49.7 °F 38.8 °F 29.68 in SSW 6.0 mph 6.0 mph 66% 0.00 in 0 W/m2
22:38 49.6 °F 38.7 °F 29.68 in WSW 5.0 mph 9.0 mph 66% 0.00 in 0 W/m2
22:44 49.6 °F 38.3 °F 29.68 in WSW 4.0 mph 4.0 mph 65% 0.00 in 0 W/m2
22:50 49.6 °F 38.3 °F 29.68 in West 4.0 mph 4.0 mph 65% 0.00 in 0 W/m2
22:56 49.6 °F 38.3 °F 29.68 in West 5.0 mph 6.0 mph 65% 0.00 in 0 W/m2
23:03 49.5 °F 38.2 °F 29.69 in West 3.0 mph 8.0 mph 65% 0.00 in 0 W/m2
23:08 49.5 °F 38.6 °F 29.69 in SW 4.0 mph 8.0 mph 66% 0.00 in 0 W/m2
23:14 49.3 °F 38.8 °F 29.69 in West 3.0 mph 4.0 mph 67% 0.00 in 0 W/m2
23:20 48.9 °F 39.2 °F 29.69 in West 3.0 mph 3.0 mph 69% 0.00 in 0 W/m2
23:26 48.6 °F 39.6 °F 29.69 in West 3.0 mph 3.0 mph 71% 0.00 in 0 W/m2
23:32 48.2 °F 39.6 °F 29.69 in West 3.0 mph 4.0 mph 72% 0.00 in 0 W/m2
23:38 47.9 °F 40.0 °F 29.69 in NW 2.0 mph 4.0 mph 74% 0.00 in 0 W/m2
23:44 47.8 °F 39.9 °F 29.69 in WSW 3.0 mph 8.0 mph 74% 0.00 in 0 W/m2
23:50 47.6 °F 40.1 °F 29.69 in WSW 3.0 mph 3.0 mph 75% 0.00 in 0 W/m2
23:56 47.6 °F 40.1 °F 29.69 in West 3.0 mph 6.0 mph 75% 0.00 in 0 W/m2
Country Meadow, Clay, NY, USA
Compliments of Weather Underground - 2 mb